FW4435 Weather Reports


Display with metric or nautical units.
time (UTC)temp
F
wind
direction
speed
MPH
gust
MPH
rain 1hr
in
rain 24hr
in
rain mn
in
humidity
%
barometer
mb
20260507084031 39 176 0.0 0.0 0.00 0.00 0.00 94 1007.4
20260507083527 39 203 2.0 2.0 0.00 0.00 0.00 94 1007.4
20260507083025 39 193 2.0 2.0 0.00 0.00 0.00 94 1007.1
20260507082521 39 195 2.0 3.0 0.00 0.00 0.00 94 1007.4
20260507082017 39 220 3.0 3.0 0.00 0.00 0.00 94 1007.4
20260507081513 40 200 4.0 4.0 0.00 0.00 0.00 94 1007.4
20260507081010 40 200 5.0 6.0 0.00 0.00 0.00 94 1007.4
20260507080506 40 244 2.0 3.0 0.00 0.00 0.00 94 1007.8
20260507080002 40 261 4.0 4.0 0.00 0.00 0.00 95 1007.4
20260507075458 40 210 3.0 3.0 0.00 0.00 0.00 96 1007.4
20260507074954 39 210 2.0 3.0 0.00 0.00 0.00 96 1007.4
20260507074451 39 167 1.0 1.0 0.00 0.00 0.00 96 1007.1
20260507073950 39 181 1.0 1.0 0.00 0.00 0.00 96 1007.4
20260507073445 39 178 2.0 3.0 0.00 0.00 0.00 96 1007.1
20260507072942 39 179 3.0 3.0 0.00 0.00 0.00 96 1007.1
20260507072440 39 157 1.0 1.0 0.00 0.00 0.00 96 1007.1
20260507071937 39 160 1.0 2.0 0.00 0.00 0.00 95 1006.8
20260507071434 40 160 2.0 2.0 0.00 0.00 0.00 95 1007.1
20260507070930 40 163 1.0 1.0 0.00 0.00 0.00 95 1006.8
20260507070428 40 149 1.0 1.0 0.00 0.00 0.00 95 1007.1
20260507065925 41 164 0.0 0.0 0.00 0.00 0.00 95 1007.1
20260507065421 41 143 0.0 0.0 0.00 0.00 0.00 95 1006.8
20260507064919 41 149 0.0 0.0 0.00 0.00 0.00 95 1007.1
20260507064417 42 128 1.0 1.0 0.00 0.00 0.00 94 1007.1
20260507063915 42 146 1.0 1.0 0.00 0.00 0.00 93 1007.4
20260507063411 42 131 0.0 0.0 0.00 0.00 0.00 93 1006.8
20260507062908 42 125 1.0 1.0 0.00 0.00 0.00 92 1006.8
20260507062405 42 165 0.0 0.0 0.00 0.00 0.00 92 1007.1
20260507061903 42 170 1.0 1.0 0.00 0.00 0.00 92 1007.1
20260507061401 42 51 2.0 3.0 0.00 0.00 0.00 92 1006.8
20260507060859 42 291 2.0 2.0 0.00 0.00 0.00 92 1007.1
20260507060355 42 163 0.0 1.0 0.00 0.00 0.00 92 1007.1
20260507055852 42 166 0.0 1.0 0.00 0.00 0.00 91 1007.1
20260507055347 42 159 0.0 1.0 0.00 0.00 0.00 91 1007.4
20260507054844 42 200 2.0 2.0 0.00 0.00 0.00 92 1007.8
20260507054340 42 191 3.0 3.0 0.00 0.00 0.00 92 1007.4
20260507053837 41 178 1.0 2.0 0.00 0.00 0.00 92 1007.4
20260507053335 41 177 2.0 3.0 0.00 0.00 0.00 92 1007.4
20260507052834 41 149 0.0 1.0 0.00 0.00 0.00 92 1007.4
20260507052330 42 158 0.0 1.0 0.00 0.00 0.00 91 1007.4
20260507051828 42 160 0.0 0.0 0.00 0.00 0.00 91 1007.4
20260507051325 42 63 2.0 3.0 0.00 0.00 0.00 92 1007.1
20260507050822 42 170 0.0 1.0 0.00 0.00 0.00 91 1007.4
20260507050318 42 287 1.0 2.0 0.00 0.00 0.00 92 1007.4
20260507045815 41 288 1.0 1.0 0.00 0.00 0.00 92 1007.8
20260507045312 41 278 2.0 3.0 0.00 0.00 0.00 93 1007.4
20260507044809 41 94 0.0 0.0 0.00 0.00 0.00 92 1007.4
20260507044306 42 144 0.0 0.0 0.00 0.00 0.00 92 1007.4
20260507043801 42 202 2.0 2.0 0.00 0.00 0.00 92 1007.1
20260507043258 42 158 0.0 0.0 0.00 0.00 0.00 91 1007.1
20260507042754 42 238 3.0 3.0 0.00 0.00 0.00 92 1007.4
20260507042249 42 175 1.0 1.0 0.00 0.00 0.00 93 1007.4
20260507041747 42 180 1.0 1.0 0.00 0.00 0.00 94 1007.1
20260507041244 42 209 1.0 1.0 0.00 0.00 0.00 93 1007.4
20260507040741 42 185 1.0 2.0 0.00 0.00 0.00 94 1007.4
20260507040237 42 277 2.0 3.0 0.00 0.00 0.00 95 1007.1
20260507035733 42 222 2.0 3.0 0.00 0.72 0.72 95 1007.1
20260507035228 42 168 1.0 1.0 0.00 0.72 0.72 95 1007.1
20260507034726 42 179 2.0 3.0 0.00 0.72 0.72 96 1007.4
20260507034223 43 157 1.0 1.0 0.00 0.72 0.72 97 1007.1
20260507033722 43 148 0.0 0.0 0.00 0.72 0.72 97 1007.4
20260507033219 43 148 0.0 0.0 0.00 0.72 0.72 97 1007.4
20260507032716 43 143 0.0 0.0 0.00 0.72 0.72 96 1007.4
20260507032212 43 170 1.0 1.0 0.00 0.72 0.72 97 1007.4
20260507031709 43 136 0.0 0.0 0.00 0.72 0.72 97 1007.4
20260507031205 43 307 4.0 6.0 0.00 0.72 0.72 97 1007.4
20260507030702 43 177 1.0 1.0 0.00 0.72 0.72 97 1007.4
20260507030200 43 181 1.0 1.0 0.00 0.72 0.72 97 1007.8
20260507025657 43 357 3.0 3.0 0.00 0.72 0.72 98 1007.4
20260507025154 44 157 0.0 0.0 0.00 0.72 0.72 98 1007.4
20260507024652 44 145 0.0 0.0 0.00 0.72 0.72 98 1007.4
20260507024149 44 198 2.0 3.0 0.00 0.72 0.72 98 1007.4
20260507023644 44 129 0.0 0.0 0.00 0.72 0.72 98 1007.4
20260507023142 44 139 0.0 0.0 0.00 0.72 0.72 98 1007.8
20260507022639 44 259 2.0 2.0 0.05 0.72 0.72 98 1007.8
20260507022134 44 171 1.0 1.0 0.05 0.72 0.72 98 1007.4
20260507021631 44 187 2.0 2.0 0.00 0.71 0.71 98 1008.1
20260507021126 44 156 0.0 0.0 0.00 0.71 0.71 98 1007.8
20260507020625 44 155 0.0 0.0 0.00 0.71 0.71 98 1007.8
20260507020121 44 97 1.0 1.0 0.00 0.71 0.71 98 1007.8
20260507015619 44 46 2.0 3.0 0.00 0.71 0.71 98 1007.8
20260507015116 44 144 1.0 1.0 0.00 0.71 0.71 98 1007.4
20260507014613 44 163 1.0 2.0 0.00 0.71 0.71 98 1007.4
20260507014109 44 102 1.0 2.0 0.07 0.71 0.71 98 1007.4
20260507013606 44 92 1.0 1.0 0.07 0.71 0.71 98 1007.4
20260507013103 44 174 1.0 1.0 0.00 0.70 0.70 98 1007.4
20260507012600 44 137 0.0 1.0 0.00 0.70 0.70 98 1007.4
20260507012055 44 133 1.0 1.0 0.00 0.70 0.70 97 1007.4
20260507011553 44 344 2.0 3.0 0.00 0.70 0.70 97 1007.4
20260507011044 44 139 0.0 1.0 0.00 0.70 0.70 97 1007.4
20260507010539 44 41 2.0 3.0 0.00 0.70 0.70 97 1007.4
20260507010035 44 171 0.0 0.0 0.05 0.70 0.70 97 1007.8
20260507005533 43 158 1.0 1.0 0.05 0.70 0.70 97 1007.1
20260507005029 43 245 3.0 3.0 0.00 0.69 0.69 97 1007.1
20260507004526 43 93 1.0 2.0 0.00 0.69 0.69 97 1007.4
20260507004023 43 17 3.0 7.0 0.07 0.69 0.69 97 1007.1
20260507003519 44 43 2.0 2.0 0.07 0.69 0.69 97 1006.8
20260507003014 44 39 3.0 3.0 0.00 0.68 0.68 97 1007.1
20260507002511 44 318 4.0 6.0 0.00 0.68 0.68 97 1006.8
20260507002007 44 191 2.0 2.0 0.00 0.68 0.68 97 1006.8
20260507001503 44 124 0.0 0.0 0.05 0.68 0.68 97 1006.8
20260507001001 44 125 1.0 1.0 0.05 0.68 0.68 97 1006.8
20260507000457 44 54 3.0 4.0 0.00 0.67 0.67 97 1006.4
20260506235952 44 49 2.0 3.0 0.00 0.67 0.67 98 1006.4
20260506235450 45 195 2.0 3.0 0.00 0.67 0.67 98 1006.4
20260506234946 44 134 2.0 3.0 0.00 0.67 0.67 98 1006.1
20260506234444 45 44 4.0 4.0 0.00 0.67 0.67 98 1006.1
20260506233941 45 48 2.0 2.0 0.00 0.67 0.67 98 1006.1
20260506233437 45 76 2.0 3.0 0.00 0.67 0.67 98 1005.8
20260506232934 45 102 2.0 2.0 0.00 0.67 0.67 98 1005.8
20260506232430 45 84 1.0 2.0 0.00 0.67 0.67 98 1005.8
20260506231926 45 48 3.0 4.0 0.00 0.67 0.67 98 1005.8
20260506231423 45 75 3.0 3.0 0.00 0.67 0.67 98 1005.8
20260506230921 45 31 8.0 10.0 0.00 0.67 0.67 98 1005.8
20260506230417 45 136 0.0 1.0 0.00 0.67 0.67 98 1005.3
20260506225914 45 36 2.0 2.0 0.00 0.67 0.67 98 1005.3
20260506225411 45 103 2.0 2.0 0.00 0.67 0.67 98 1005.8
20260506224908 45 50 1.0 2.0 0.00 0.67 0.67 98 1005.3
20260506224405 46 343 3.0 4.0 0.00 0.67 0.67 98 1005.3
20260506223901 46 94 0.0 1.0 0.00 0.67 0.67 98 1005.3
20260506223356 46 81 7.0 9.0 0.00 0.67 0.67 98 1005.0
20260506222854 46 153 0.0 0.0 0.00 0.67 0.67 98 1005.3
20260506222350 46 131 1.0 1.0 0.00 0.67 0.67 98 1005.3
20260506221848 46 155 0.0 0.0 0.00 0.67 0.67 98 1005.0
20260506221345 46 95 2.0 2.0 0.00 0.67 0.67 98 1005.0
20260506220842 46 108 0.0 0.0 0.00 0.67 0.67 98 1005.0
20260506220338 46 45 4.0 6.0 0.00 0.67 0.67 98 1005.3
20260506215835 46 39 2.0 2.0 0.00 0.67 0.67 98 1005.0
20260506215330 46 109 1.0 1.0 0.00 0.67 0.67 98 1004.6
20260506214827 46 44 4.0 4.0 0.00 0.67 0.67 98 1004.6
20260506214324 46 79 2.0 3.0 0.00 0.67 0.67 98 1005.0
20260506213822 47 75 3.0 3.0 0.00 0.67 0.67 98 1004.6
20260506213319 47 97 2.0 3.0 0.00 0.67 0.67 98 1004.6
20260506212816 47 76 1.0 2.0 0.00 0.67 0.67 98 1004.6
20260506212312 48 82 3.0 4.0 0.00 0.67 0.67 98 1004.6
20260506211807 48 105 1.0 1.0 0.00 0.67 0.67 99 1004.6
20260506211303 48 342 4.0 4.0 0.00 0.67 0.67 98 1005.0
20260506210801 48 68 3.0 3.0 0.00 0.67 0.67 98 1005.0
20260506210257 49 69 1.0 1.0 0.00 0.67 0.67 98 1004.6
20260506205754 50 79 2.0 3.0 0.00 0.67 0.67 98 1004.6
20260506205250 50 6 2.0 2.0 0.00 0.67 0.67 98 1004.6
20260506204747 50 175 1.0 2.0 0.00 0.67 0.67 98 1004.6
20260506204245 50 76 1.0 2.0 0.07 0.67 0.67 98 1004.3
20260506203742 51 75 0.0 1.0 0.12 0.67 0.67 98 1004.3
20260506203239 51 125 1.0 1.0 0.31 0.66 0.66 98 1004.3
20260506202736 53 338 5.0 6.0 0.43 0.64 0.64 98 1004.3
20260506202233 54 201 3.0 3.0 0.35 0.61 0.61 98 1004.0
20260506201730 57 304 4.0 4.0 0.24 0.57 0.57 98 1004.3
20260506201226 58 177 2.0 2.0 0.12 0.54 0.54 98 1004.0
20260506200723 58 250 3.0 3.0 0.05 0.53 0.53 98 1004.0
20260506200220 58 237 2.0 3.0 0.00 0.52 0.52 98 1004.0
20260506195716 58 163 2.0 2.0 0.00 0.52 0.52 98 1003.6
20260506195212 58 195 3.0 4.0 0.07 0.52 0.52 97 1004.0
20260506194705 58 204 2.0 2.0 0.05 0.51 0.51 97 1004.0
20260506194201 58 202 2.0 2.0 0.12 0.51 0.51 97 1004.0
20260506193658 58 179 2.0 4.0 0.14 0.50 0.50 97 1004.0
20260506193155 58 182 2.0 3.0 0.07 0.49 0.49 97 1004.3
20260506192652 58 173 2.0 3.0 0.00 0.48 0.48 98 1004.0
20260506192148 58 205 3.0 3.0 0.05 0.48 0.48 98 1004.3
20260506191646 58 168 1.0 1.0 0.05 0.48 0.48 98 1004.3
20260506191141 58 152 0.0 0.0 0.00 0.47 0.47 98 1004.3
20260506190639 57 208 4.0 4.0 0.00 0.47 0.47 98 1004.3
20260506190135 58 162 2.0 2.0 0.07 0.47 0.47 99 1004.0
20260506185633 58 156 1.0 2.0 0.07 0.47 0.47 99 1004.3
20260506185129 57 151 2.0 2.0 0.00 0.46 0.46 99 1004.3
20260506184626 57 156 0.0 1.0 0.00 0.46 0.46 99 1004.6
20260506184123 57 155 0.0 0.0 0.00 0.46 0.46 99 1004.3
20260506183620 57 160 0.0 1.0 0.00 0.46 0.46 99 1004.6
20260506183116 57 175 1.0 1.0 0.00 0.46 0.46 99 1004.6
20260506182614 57 175 2.0 2.0 0.00 0.46 0.46 99 1004.6
20260506182110 57 186 0.0 0.0 0.12 0.46 0.46 99 1004.6
20260506181609 56 113 1.0 1.0 0.12 0.45 0.45 99 1004.6
20260506181105 56 187 2.0 2.0 0.12 0.44 0.44 98 1005.0
20260506180602 56 117 0.0 1.0 0.12 0.43 0.43 98 1004.6
20260506180059 56 135 0.0 0.0 0.12 0.42 0.42 98 1005.0
20260506175555 56 159 0.0 0.0 0.12 0.41 0.41 98 1005.3
20260506175051 56 160 0.0 0.0 0.17 0.40 0.40 98 1005.3
20260506174550 56 158 1.0 1.0 0.19 0.38 0.38 97 1005.3
20260506174046 56 169 0.0 0.0 0.19 0.37 0.37 97 1005.3
20260506173544 56 179 1.0 1.0 0.17 0.35 0.35 97 1005.3
20260506173040 56 172 0.0 0.0 0.17 0.33 0.33 97 1005.3
20260506172538 56 188 1.0 1.0 0.19 0.32 0.32 97 1005.3
20260506172034 56 189 1.0 2.0 0.24 0.30 0.30 97 1005.8
20260506171531 56 178 5.0 6.0 0.31 0.28 0.28 97 1005.8
20260506171029 56 156 2.0 2.0 0.26 0.26 0.26 97 1006.1
20260506170526 56 162 1.0 1.0 0.19 0.23 0.23 97 1005.8
20260506170023 56 167 1.0 1.0 0.17 0.22 0.22 96 1005.8
20260506165522 56 162 0.0 0.0 0.24 0.20 0.20 96 1005.8
20260506165018 56 160 2.0 2.0 0.50 0.19 0.19 95 1006.1
20260506164514 57 210 1.0 1.0 0.19 0.13 0.13 95 1006.1
20260506164012 57 195 1.0 1.0 0.05 0.11 0.11 95 1005.8
20260506163508 57 160 1.0 1.0 0.07 0.10 0.10 94 1005.8
20260506163004 57 133 0.0 0.0 0.12 0.10 0.10 95 1005.8
20260506162500 57 164 2.0 3.0 0.05 0.09 0.09 94 1006.1
20260506161957 57 197 1.0 1.0 0.07 0.08 0.08 94 1006.1
20260506161455 56 183 4.0 4.0 0.05 0.07 0.07 94 1006.1
20260506160952 56 189 1.0 2.0 0.05 0.07 0.07 94 1006.4
20260506160449 56 220 1.0 2.0 0.00 0.06 0.06 94 1006.4
20260506155946 56 192 4.0 4.0 0.07 0.06 0.06 93 1006.4
20260506155444 56 193 2.0 2.0 0.07 0.06 0.06 94 1006.4
20260506153611 56 126 1.0 1.0 0.05 0.05 0.05 94 1006.8
20260506153108 56 206 4.0 6.0 0.00 0.04 0.04 93 1006.8
20260506152605 56 150 0.0 1.0 0.00 0.04 0.04 94 1006.8
20260506152103 55 206 4.0 4.0 0.00 0.04 0.04 93 1007.1
20260506151601 55 174 1.0 1.0 0.07 0.04 0.04 93 1007.1
20260506151058 55 191 1.0 1.0 0.07 0.04 0.04 93 1007.1
20260506150554 55 190 2.0 2.0 0.00 0.03 0.03 93 1007.4
20260506150051 55 181 3.0 3.0 0.00 0.03 0.03 93 1007.1
20260506145548 55 181 1.0 1.0 0.05 0.03 0.03 93 1007.4
20260506145045 55 191 1.0 1.0 0.05 0.03 0.03 93 1007.1
20260506144542 55 195 2.0 2.0 0.00 0.02 0.02 93 1007.1
20260506144039 55 223 3.0 3.0 0.07 0.02 0.02 92 1007.4
20260506143537 55 168 1.0 2.0 0.07 0.02 0.02 92 1007.4
20260506143035 56 179 1.0 1.0 0.05 0.01 0.01 91 1007.4
20260506142532 56 168 0.0 1.0 0.05 0.01 0.01 91 1007.4
20260506142031 56 186 1.0 1.0 0.00 0.00 0.00 90 1007.1
20260506141528 56 223 4.0 4.0 0.00 0.00 0.00 90 1007.1
20260506141026 56 184 2.0 2.0 0.00 0.00 0.00 90 1007.1
20260506140523 56 171 2.0 3.0 0.00 0.00 0.00 89 1007.1
20260506140020 56 184 3.0 3.0 0.00 0.00 0.00 89 1007.1
20260506135517 56 202 2.0 3.0 0.00 0.00 0.00 89 1007.4
20260506135013 55 177 3.0 3.0 0.00 0.00 0.00 90 1007.1
20260506134510 55 201 3.0 3.0 0.00 0.00 0.00 90 1007.1
20260506134006 55 176 0.0 1.0 0.00 0.00 0.00 90 1007.1
20260506133503 55 201 2.0 3.0 0.00 0.00 0.00 90 1007.1
20260506133000 55 170 0.0 0.0 0.00 0.00 0.00 90 1007.1
20260506132457 55 179 0.0 1.0 0.00 0.00 0.00 91 1007.4
20260506131954 55 172 2.0 2.0 0.00 0.00 0.00 91 1007.4
20260506131451 55 208 3.0 4.0 0.00 0.00 0.00 91 1007.4
20260506130948 55 201 4.0 4.0 0.00 0.00 0.00 91 1007.4
20260506130444 55 201 4.0 6.0 0.00 0.00 0.00 91 1007.8
20260506125942 55 206 3.0 3.0 0.00 0.00 0.00 91 1007.8
20260506125440 55 206 4.0 6.0 0.00 0.00 0.00 91 1007.8
20260506124938 55 195 4.0 4.0 0.00 0.00 0.00 91 1007.4
20260506124435 55 180 1.0 1.0 0.00 0.00 0.00 91 1007.4
20260506123933 55 105 1.0 1.0 0.00 0.00 0.00 90 1007.4
20260506123431 55 180 1.0 2.0 0.00 0.00 0.00 90 1007.4
20260506122929 55 181 4.0 4.0 0.00 0.00 0.00 90 1007.4
20260506122425 55 190 3.0 3.0 0.00 0.00 0.00 90 1007.4
20260506121924 55 190 4.0 4.0 0.00 0.00 0.00 90 1007.4
20260506121420 55 190 4.0 4.0 0.00 0.00 0.00 90 1007.8
20260506120917 55 249 4.0 6.0 0.00 0.00 0.00 90 1007.8
20260506120414 55 213 1.0 2.0 0.00 0.00 0.00 90 1007.8
20260506115912 55 174 2.0 2.0 0.00 0.00 0.00 90 1007.4
20260506115410 55 189 4.0 4.0 0.00 0.00 0.00 90 1007.8
20260506114908 55 246 5.0 7.0 0.00 0.00 0.00 90 1007.8
20260506114405 55 213 2.0 2.0 0.00 0.00 0.00 90 1007.8
20260506113904 55 191 2.0 2.0 0.00 0.00 0.00 90 1007.4
20260506113401 55 208 7.0 11.0 0.00 0.00 0.00 90 1007.8
20260506112857 55 212 5.0 7.0 0.00 0.00 0.00 91 1007.4
20260506112354 54 206 5.0 6.0 0.00 0.00 0.00 93 1007.4
20260506111851 54 194 4.0 4.0 0.00 0.00 0.00 95 1007.4
20260506111350 53 184 2.0 3.0 0.00 0.00 0.00 96 1007.4
20260506110847 53 207 2.0 2.0 0.00 0.00 0.00 97 1007.4
20260506110344 53 198 0.0 0.0 0.00 0.00 0.00 97 1007.4
20260506105841 53 198 3.0 3.0 0.00 0.00 0.00 97 1007.8
20260506105337 52 185 0.0 0.0 0.00 0.00 0.00 97 1008.1
20260506104835 52 187 0.0 1.0 0.00 0.00 0.00 97 1007.8
20260506104332 51 160 2.0 2.0 0.00 0.00 0.00 97 1007.4
20260506103830 51 163 0.0 0.0 0.00 0.00 0.00 97 1007.8
20260506103327 51 188 1.0 1.0 0.00 0.00 0.00 96 1007.4
20260506102825 52 181 0.0 0.0 0.00 0.00 0.00 96 1007.4
20260506102322 52 161 0.0 0.0 0.00 0.00 0.00 96 1007.4
20260506101820 51 167 0.0 0.0 0.00 0.00 0.00 96 1007.8
20260506101315 51 180 0.0 1.0 0.00 0.00 0.00 96 1007.4
20260506100814 51 155 0.0 0.0 0.00 0.00 0.00 96 1007.4
20260506100312 51 177 1.0 1.0 0.00 0.00 0.00 96 1007.8
20260506095810 51 166 0.0 0.0 0.00 0.00 0.00 96 1007.8
20260506095306 51 161 0.0 0.0 0.00 0.00 0.00 96 1007.4
20260506094803 51 170 1.0 1.0 0.00 0.00 0.00 95 1007.8
20260506094302 52 170 1.0 1.0 0.00 0.00 0.00 95 1007.8
20260506093800 51 157 1.0 1.0 0.00 0.00 0.00 95 1007.4
20260506093256 51 167 0.0 0.0 0.00 0.00 0.00 95 1007.8
20260506092754 51 169 0.0 0.0 0.00 0.00 0.00 95 1007.8
20260506092252 51 166 0.0 0.0 0.00 0.00 0.00 95 1007.8
20260506091749 52 165 1.0 1.0 0.00 0.00 0.00 95 1007.4
20260506091246 52 166 1.0 1.0 0.00 0.00 0.00 95 1007.8
20260506090744 52 209 2.0 2.0 0.00 0.00 0.00 94 1007.8
20260506090241 52 166 0.0 0.0 0.00 0.00 0.00 94 1007.8
20260506085738 52 160 0.0 1.0 0.00 0.00 0.00 94 1008.1
20260506085234 52 162 1.0 1.0 0.00 0.00 0.00 94 1007.8
20260506084731 52 176 0.0 0.0 0.00 0.00 0.00 94 1008.1
20260506084227 52 176 0.0 0.0 0.00 0.00 0.00 94 1008.1